User: anonymous   Login
Location: Central Falls
(41.8900°N, 71.3929°W)
Time: 07:23:25
(UTC+00:00)
Language:

Cosmos 1328 Rocket - Orbit

View from above orbital plane
View from above orbital plane
View from above satellite
View from above satellite

Ground track
Ground track

The orbit data is extracted from the following two-line orbital elements,

1 12988U 81117B   24141.71351107  .00001409  00000-0  15814-3 0  9999
2 12988  82.5258 219.6485 0018901 124.5724 235.7279 14.85965112295192
Epoch (UTC): 20 May 2024 17:07:27
Eccentricity: 0.0018901
inclination: 82.5258°
perigee height: 597 km
apogee height: 624 km
right ascension of ascending node: 219.6485°
argument of perigee: 124.5724°
revolutions per day: 14.85965112
mean anomaly at epoch: 235.7279°
orbit number at epoch: 29519

The dashed part of the orbit path shows where the satellite is in the earth's shadow,  

DLR